Location: Wells
(51.2093°N, 2.6446°W)
Time: 05:08:11
(UTC+01:00)

ITUPSAT 1 - Pass Details

Date: 22 March 2026
Orbit: 686 x 698 km, 98.4° (Epoch: 15 April)

Event Time Altitude Azimuth Distance (km) Brightness Sun altitude
Rises 00:51:33 0° 8° (N) 3,073 ? -37.7°
Reaches altitude 10° 00:54:00 10° 358° (N) 2,150 ? -37.7°
Enters shadow 00:55:18 17° 348° (NNW) 1,717 ? -37.6°
